Location: Bh?mavarapp?du
(16.7041°N, 80.6518°E)
Time: 03:35:08
(UTC+00:00)

Cosmos 405 - Pass Details

Date: 21 April 2021
Orbit: 448 x 459 km, 81.3° (Epoch: 15 May)

Event Time Altitude Azimuth Distance (km) Brightness Sun altitude
Rises 13:12:35 0° 165° (SSE) 2,438 6.3 -5.1°
Reaches altitude 10° 13:14:50 10° 153° (SSE) 1,569 5.3 -5.6°
Maximum altitude 13:17:47 27° 94° (E) 892 3.9 -6.3°
Drops below altitude 10° 13:20:44 10° 34° (NE) 1,576 5.5 -7.0°
Sets 13:23:00 0° 22° (NNE) 2,451 6.6 -7.5°
